Sigfox identifier Datetime Temperature Humidity SNR
003929DE 2018-10-09 08:57:26 20.4 40 17.3
003929DE 2018-10-09 07:50:03 20.4 40 17.4
003929DE 2018-10-09 06:42:38 20.3 40 17.4
003929DE 2018-10-09 05:35:15 20.3 40 17.4
003929DE 2018-10-09 01:05:48 20.2 40 17.3
003929DE 2018-10-08 23:58:23 20.2 40 17.2
003929DE 2018-10-08 22:51:01 20.2 40 11.2
003929DE 2018-10-08 21:43:44 20.2 40 10.9
003929DE 2018-10-08 20:36:18 20 40 10.4
003929DE 2018-10-08 19:28:57 20 39 10.4
003929DE 2018-10-08 18:21:37 20 39 10.3
003929DE 2018-10-08 17:14:15 20 39 9.9
003929DE 2018-10-08 16:06:55 20 39 8.9
003929DE 2018-10-08 14:59:36 20 39 8.4
003929DE 2018-10-08 12:44:46 20 39 8.6
003929DE 2018-10-08 10:30:01 20 40 9.2
003929DE 2018-10-08 08:15:14 20 40 9.5
003929DE 2018-10-08 07:07:51 20 40 9.6
003929DE 2018-10-08 06:00:29 20 40 9.7
003929DE 2018-10-08 03:45:48 20.2 40 9.8
003929DE 2018-10-08 02:38:24 20.1 40 9.9
003929DE 2018-10-07 21:01:19 20.2 40 10
003929DE 2018-10-07 19:53:57 20.2 40 10.2
003929DE 2018-10-07 18:46:30 20.2 40 10.2
003929DE 2018-10-07 17:39:06 20.2 40 10.3
003929DE 2018-10-07 16:31:48 20.2 40 17
003929DE 2018-10-07 13:09:43 20.4 40 17
003929DE 2018-10-07 12:02:18 20.4 40 17
003929DE 2018-10-07 09:47:40 20.4 40 17
003929DE 2018-10-07 08:40:18 20.4 40 17
003929DE 2018-10-07 07:32:56 20.4 40 17.1
003929DE 2018-10-07 06:25:33 20.4 40 17.1
003929DE 2018-10-07 05:18:13 20.4 40 17
003929DE 2018-10-07 04:10:54 20.5 40 17.1
003929DE 2018-10-07 03:03:35 20.6 40 17.2
003929DE 2018-10-07 00:48:56 20.6 40 17.2
003929DE 2018-10-06 23:41:39 20.6 40 17.2
003929DE 2018-10-06 22:34:16 20.6 40 17.2
003929DE 2018-10-06 21:26:50 20.6 40 17.3
003929DE 2018-10-06 19:12:08 20.6 40 17.2
003929DE 2018-10-06 18:04:48 20.6 40 17.2
003929DE 2018-10-06 16:57:25 20.6 40 17.4
003929DE 2018-10-06 15:50:05 20.6 40 17.4
003929DE 2018-10-06 14:42:41 20.6 40 19.8
003929DE 2018-10-06 12:28:03 20.6 40 19.8
003929DE 2018-10-06 11:20:38 20.6 40 19.9
003929DE 2018-10-06 10:13:19 20.6 40 19.9
003929DE 2018-10-06 09:05:55 20.7 40 19.9
003929DE 2018-10-06 07:58:40 20.7 40 20
003929DE 2018-10-06 06:51:15 20.7 40 20
003929DE 2018-10-06 05:43:56 20.8 40 17.8
003929DE 2018-10-06 04:36:35 20.8 40 17.9
003929DE 2018-10-06 03:29:15 20.8 40 17.8
003929DE 2018-10-06 02:21:52 20.8 40 17.9
003929DE 2018-10-06 01:14:33 20.8 40 18.1
003929DE 2018-10-06 00:07:12 20.8 40 18.1
003929DE 2018-10-05 22:59:51 20.7 40 18.1
003929DE 2018-10-05 21:52:33 20.8 40 18.1
003929DE 2018-10-05 20:45:15 20.6 39 18.1
003929DE 2018-10-05 17:23:04 20.6 39 18
003929DE 2018-10-05 15:08:16 20.6 38 18.1
003929DE 2018-10-05 14:00:49 20.6 38 18.1
003929DE 2018-10-05 11:46:00 20.8 38 18.1
003929DE 2018-10-05 10:38:35 20.8 38 18.2
003929DE 2018-10-05 09:31:13 20.6 36 18.2
003929DE 2018-10-05 08:23:50 20.4 32 18.2
003929DE 2018-10-05 07:16:31 20.4 31 18.1
003929DE 2018-10-05 06:09:08 20.4 30 18.1
003929DE 2018-10-05 05:01:46 20.4 30 14.2
003929DE 2018-10-05 03:54:21 20.4 31 14.5
003929DE 2018-10-05 02:46:55 20.4 31 14.4
003929DE 2018-10-05 01:39:32 20.6 31 14.2
003929DE 2018-10-05 00:32:09 20.6 31 14.1
003929DE 2018-10-04 23:24:43 20.6 32 14.3
003929DE 2018-10-04 22:17:16 20.7 32 14.4
003929DE 2018-10-04 21:09:50 20.8 32 17.3
003929DE 2018-10-04 20:02:23 20.8 31 17.6
003929DE 2018-10-04 18:54:58 20.7 31 17.7
003929DE 2018-10-04 17:47:35 20.7 31 17.9
003929DE 2018-10-04 16:40:09 20.6 33 17.8
003929DE 2018-10-04 15:32:44 20.4 33 17.9
003929DE 2018-10-04 14:25:20 20.4 33 18.1
003929DE 2018-10-04 13:17:58 20.4 34 18.2
003929DE 2018-10-04 12:10:34 20.4 35 18.4
003929DE 2018-10-04 11:03:09 20.2 35 18.6
003929DE 2018-10-04 09:55:47 20.2 36 18.8
003929DE 2018-10-04 08:48:21 20 36 18.9
003929DE 2018-10-04 07:41:00 20.1 37 19.2
003929DE 2018-10-04 06:33:39 20.2 39 19.3
003929DE 2018-10-04 05:26:17 20.2 39 19.6
003929DE 2018-10-04 04:18:54 20.2 40 19.9
003929DE 2018-10-04 03:11:33 20.2 40 20.1
003929DE 2018-10-04 02:04:11 20.2 41 20.4
003929DE 2018-10-04 00:56:51 20.2 41 20.8
003929DE 2018-10-03 23:49:29 20.2 42 21
003929DE 2018-10-03 22:42:07 20.3 42 21.3
003929DE 2018-10-03 21:34:43 20.4 42 21.9
003929DE 2018-10-03 20:27:22 20.4 43 22.7
003929DE 2018-10-03 19:19:57 20.4 43 23.3
003929DE 2018-10-03 18:12:32 20.6 43 24.3
003929DE 2018-10-03 17:05:06 20.8 44 19.1
003929DE 2018-10-03 15:57:43 21 44 15.2
003929DE 2018-10-03 14:50:12 20.8 52 0